EN

Hourly Weather Alsoors

Today, 21 January, Thursday

Time Temperature Precipitation Wind Pressure Humidity
00:00 +4°C° 0 mm 8 mps 747 mmHg 82%
01:00 +3°C° 0 mm 9 mps 746 mmHg 83%
02:00 +3°C° 0 mm 9 mps 746 mmHg 81%
03:00 +3°C° 0 mm 9 mps 746 mmHg 80%
04:00 +3°C° 0 mm 9 mps 745 mmHg 79%
05:00 +3°C° 0 mm 9 mps 745 mmHg 79%
06:00 +3°C° 0 mm 9 mps 745 mmHg 79%
07:00 +3°C° 0 mm 9 mps 745 mmHg 79%
08:00 +5°C° 0 mm 9 mps 745 mmHg 75%
09:00 +6°C° 0 mm 10 mps 745 mmHg 72%
10:00 +7°C° 0 mm 11 mps 745 mmHg 68%
11:00 +8°C° 0 mm 11 mps 745 mmHg 66%
12:00 +8°C° 0 mm 11 mps 745 mmHg 64%
13:00 +9°C° 0 mm 11 mps 745 mmHg 62%
14:00 +9°C° 0 mm 10 mps 744 mmHg 64%
15:00 +8°C° 0 mm 9 mps 744 mmHg 66%
16:00 +9°C° 0 mm 8 mps 744 mmHg 67%
17:00 +9°C° 0 mm 8 mps 744 mmHg 70%
18:00 +7°C° 0 mm 8 mps 744 mmHg 72%
19:00 +7°C° 0 mm 8 mps 744 mmHg 74%
20:00 +7°C° 0 mm 8 mps 744 mmHg 75%
21:00 +7°C° 0 mm 8 mps 744 mmHg 76%
22:00 +6°C° 0 mm 8 mps 744 mmHg 77%
23:00 +6°C° 0 mm 8 mps 744 mmHg 77%

Tomorrow, 22 January, Friday

Time Temperature Precipitation Wind Pressure Humidity
00:00 +6°C° 0 mm 8 mps 744 mmHg 78%
01:00 +6°C° 0 mm 8 mps 743 mmHg 79%
02:00 +6°C° 0 mm 8 mps 743 mmHg 79%
03:00 +6°C° 0 mm 8 mps 742 mmHg 80%
04:00 +6°C° 0 mm 8 mps 742 mmHg 80%
05:00 +6°C° 0 mm 8 mps 741 mmHg 81%
06:00 +6°C° 0 mm 8 mps 741 mmHg 81%
07:00 +6°C° 0 mm 8 mps 741 mmHg 81%
08:00 +7°C° 0 mm 8 mps 741 mmHg 78%
09:00 +8°C° 0 mm 9 mps 740 mmHg 75%
10:00 +8°C° 0 mm 9 mps 740 mmHg 72%
11:00 +10°C° 0 mm 9 mps 740 mmHg 72%
12:00 +10°C° 0 mm 8 mps 740 mmHg 71%
13:00 +11°C° 0 mm 8 mps 739 mmHg 70%
14:00 +10°C° 0 mm 8 mps 739 mmHg 74%
15:00 +10°C° 0 mm 7 mps 738 mmHg 78%
16:00 +9°C° 0 mm 7 mps 738 mmHg 82%
17:00 +9°C° 0 mm 7 mps 738 mmHg 82%
18:00 +9°C° 0 mm 7 mps 738 mmHg 83%
19:00 +8°C° 0 mm 7 mps 737 mmHg 84%
20:00 +8°C° 0 mm 7 mps 737 mmHg 85%
21:00 +8°C° 0 mm 7 mps 737 mmHg 85%
22:00 +7°C° 0 mm 6 mps 737 mmHg 85%
23:00 +7°C° 0.1 mm 6 mps 736 mmHg 85%

Day after tomorrow, 23 January, Saturday

Time Temperature Precipitation Wind Pressure Humidity
00:00 +7°C° 0.1 mm 6 mps 736 mmHg 85%
01:00 +7°C° 0.1 mm 5 mps 735 mmHg 86%
02:00 +7°C° 0.1 mm 6 mps 735 mmHg 83%
03:00 +8°C° 0.1 mm 6 mps 734 mmHg 80%
04:00 +8°C° 0.1 mm 7 mps 734 mmHg 77%
05:00 +8°C° 0.1 mm 7 mps 734 mmHg 77%
06:00 +8°C° 0.1 mm 7 mps 734 mmHg 78%
07:00 +8°C° 0.1 mm 7 mps 734 mmHg 78%
08:00 +8°C° 0.1 mm 7 mps 734 mmHg 77%
09:00 +9°C° 0.1 mm 7 mps 734 mmHg 76%
10:00 +9°C° 0.1 mm 8 mps 734 mmHg 74%
11:00 +9°C° 0.6 mm 7 mps 734 mmHg 75%
12:00 +9°C° 0.6 mm 6 mps 734 mmHg 76%
13:00 +9°C° 0.6 mm 5 mps 734 mmHg 76%
14:00 +7°C° 0.8 mm 5 mps 734 mmHg 81%
15:00 +6°C° 0.8 mm 4 mps 734 mmHg 85%
16:00 +4°C° 0.8 mm 4 mps 734 mmHg 90%
17:00 +4°C° 0.1 mm 4 mps 734 mmHg 90%
18:00 +3°C° 0.1 mm 4 mps 734 mmHg 90%
19:00 +1°C° 0.1 mm 4 mps 734 mmHg 90%
20:00 +1°C° 0 mm 4 mps 734 mmHg 89%
21:00 +2°C° 0 mm 3 mps 734 mmHg 89%
22:00 +2°C° 0 mm 3 mps 734 mmHg 89%
23:00 +1°C° 0.1 mm 3 mps 734 mmHg 90%

24 January, Sunday

Time Temperature Precipitation Wind Pressure Humidity
00:00 +2°C° 0.1 mm 2 mps 734 mmHg 92%
01:00 +2°C° 0.1 mm 2 mps 734 mmHg 93%
02:00 +2°C° 0.8 mm 2 mps 734 mmHg 94%
03:00 +2°C° 0.8 mm 2 mps 734 mmHg 95%
04:00 +2°C° 0.8 mm 2 mps 734 mmHg 96%
05:00 +2°C° 0.2 mm 2 mps 734 mmHg 96%
06:00 +2°C° 0.2 mm 2 mps 734 mmHg 96%
07:00 +2°C° 0.2 mm 2 mps 734 mmHg 96%
08:00 +3°C° 0 mm 2 mps 735 mmHg 94%
09:00 +2°C° 0 mm 3 mps 735 mmHg 92%
10:00 +1°C° 0 mm 4 mps 736 mmHg 91%
11:00 0°C° 0 mm 4 mps 736 mmHg 90%
12:00 0°C° 0 mm 4 mps 736 mmHg 89%
13:00 0°C° 0 mm 4 mps 736 mmHg 88%
14:00 0°C° 0 mm 4 mps 736 mmHg 85%
15:00 +2°C° 0 mm 3 mps 736 mmHg 81%
16:00 +3°C° 0 mm 2 mps 737 mmHg 77%
17:00 +2°C° 0 mm 2 mps 737 mmHg 80%
18:00 +2°C° 0 mm 2 mps 737 mmHg 82%
19:00 +1°C° 0 mm 2 mps 738 mmHg 85%
20:00 +1°C° 0 mm 2 mps 737 mmHg 83%
21:00 0°C° 0 mm 3 mps 737 mmHg 81%
22:00 -1°C° 0 mm 4 mps 737 mmHg 79%
23:00 -1°C° 0 mm 4 mps 737 mmHg 77%

25 January, Monday

Time Temperature Precipitation Wind Pressure Humidity
00:00 -1°C° 0 mm 4 mps 737 mmHg 75%
01:00 -1°C° 0 mm 4 mps 737 mmHg 74%
02:00 -1°C° 0 mm 5 mps 737 mmHg 75%
03:00 -2°C° 0 mm 6 mps 737 mmHg 77%
04:00 -2°C° 0 mm 7 mps 737 mmHg 78%
05:00 -2°C° 0 mm 7 mps 737 mmHg 80%
06:00 -2°C° 0 mm 7 mps 737 mmHg 82%
07:00 -2°C° 0 mm 7 mps 737 mmHg 84%
08:00 -2°C° 0 mm 8 mps 738 mmHg 81%
09:00 -2°C° 0 mm 8 mps 738 mmHg 78%
10:00 -3°C° 0 mm 9 mps 739 mmHg 76%
11:00 -1°C° 0 mm 9 mps 739 mmHg 72%
12:00 -1°C° 0 mm 9 mps 739 mmHg 68%
13:00 0°C° 0 mm 9 mps 739 mmHg 65%
14:00 0°C° 0 mm 9 mps 740 mmHg 65%
15:00 -1°C° 0 mm 8 mps 740 mmHg 65%
16:00 -1°C° 0 mm 7 mps 740 mmHg 66%
17:00 -1°C° 0 mm 7 mps 741 mmHg 68%
18:00 -2°C° 0 mm 6 mps 741 mmHg 69%
19:00 -2°C° 0 mm 6 mps 742 mmHg 71%
20:00 -2°C° 0 mm 5 mps 742 mmHg 72%
21:00 -2°C° 0 mm 5 mps 743 mmHg 73%
22:00 -2°C° 0 mm 5 mps 743 mmHg 73%
23:00 -2°C° 0 mm 5 mps 743 mmHg 74%

26 January, Tuesday

Time Temperature Precipitation Wind Pressure Humidity
00:00 -2°C° 0 mm 5 mps 744 mmHg 75%
01:00 -2°C° 0 mm 5 mps 744 mmHg 77%
02:00 -2°C° 0 mm 4 mps 744 mmHg 79%
03:00 -2°C° 0 mm 4 mps 744 mmHg 81%
04:00 -2°C° 0 mm 4 mps 744 mmHg 83%
05:00 -2°C° 0 mm 4 mps 745 mmHg 84%
06:00 -2°C° 0 mm 4 mps 745 mmHg 84%
07:00 -3°C° 0 mm 4 mps 746 mmHg 85%
08:00 -2°C° 0 mm 5 mps 746 mmHg 79%
09:00 -2°C° 0 mm 6 mps 747 mmHg 73%
10:00 -2°C° 0 mm 6 mps 747 mmHg 68%
11:00 -1°C° 0 mm 6 mps 747 mmHg 64%
12:00 -1°C° 0 mm 6 mps 747 mmHg 60%
13:00 +1°C° 0 mm 6 mps 747 mmHg 57%
14:00 +1°C° 0 mm 5 mps 747 mmHg 59%
15:00 0°C° 0 mm 4 mps 748 mmHg 62%
16:00 +1°C° 0 mm 3 mps 748 mmHg 65%
17:00 +1°C° 0 mm 2 mps 747 mmHg 68%
18:00 -1°C° 0 mm 2 mps 747 mmHg 71%
19:00 -1°C° 0 mm 2 mps 747 mmHg 73%
20:00 -1°C° 0 mm 2 mps 747 mmHg 74%
21:00 -1°C° 0 mm 2 mps 747 mmHg 75%
22:00 -1°C° 0 mm 3 mps 747 mmHg 76%
23:00 -1°C° 0 mm 3 mps 746 mmHg 75%
Show more